Regional Weather Roundup
Issued by NWS

Home | Current Version | Previous Version | Text Only | Print | Product List | Glossary Off
Versions: 1 2 3 4 5 6 7 8 9 10 11 12 13 14 15 16 17 18 19 20 21 22 23 24 25 26 27 28 29 30 31 32 33 34 35 36 37 38 39 40 41 42 43 44 45 46 47 48 49 50

000
ASUS43 KBIS 012320
RWRND

NORTH DAKOTA REGIONAL WEATHER ROUNDUP
NATIONAL WEATHER SERVICE BISMARCK ND
500 PM CST SUN MAR 01 2015

NOTE: "FAIR" INDICATES FEW OR NO CLOUDS BELOW 12,000 FEET WITH NO
SIGNIFICANT WEATHER AND/OR OBSTRUCTIONS TO VISIBILITY.


NDZ001>003-009>011-017-020000-
NORTHWEST NORTH DAKOTA

CITY           SKY/WX    TMP DP  RH WIND       PRES   REMARKS
WILLISTON      SUNNY     26   7  44 NW9       30.29S WCI  17
MINOT          SUNNY     21   8  57 W13       30.28R WCI   9
MINOT AFB      SUNNY     20  12  73 W13       30.27S WCI   7
$$

NDZ018>021-031>035-040>046-020000-
SOUTHWEST NORTH DAKOTA

CITY           SKY/WX    TMP DP  RH WIND       PRES   REMARKS
BISMARCK       PTSUNNY   23  10  57 N12G23    30.33R WCI  12
DICKINSON      CLOUDY    23  11  60 NW7       30.26R WCI  15
GARRISON         N/A     21  11  65 NW14      30.29R WCI   8
HETTINGER ARPT CLOUDY    24  11  57 NW14G24   30.28R WCI  12
$$

NDZ004>008-012>016-024-026-027-054-020000-
NORTHEAST NORTH DAKOTA

CITY           SKY/WX    TMP DP  RH WIND       PRES   REMARKS
GRAND FORKS    MOSUNNY   21   9  59 NW12      30.27R WCI   9
GRND FRKS AFB  SUNNY     20   8  58 NW13      30.27R WCI   7
DEVILS LAKE    SUNNY     18   9  68 W15       30.26R WCI   3
$$

NDZ022-023-025-028>030-036>039-047>053-020000-
SOUTHEAST NORTH DAKOTA

CITY           SKY/WX    TMP DP  RH WIND       PRES   REMARKS
FARGO          PTSUNNY   21  11  65 NW15      30.28R WCI   8
JAMESTOWN      SUNNY     20   7  57 NW16G24   30.28R WCI   6
$$




USA.gov is the U.S. government's official web portal to all federal, state and local government web resources and services.